Hourly Data Report for February 09, 2021

KUGAARUK CLIMATE
NUNAVUT
Current Station Operator: ECCC - MSC

68°32'15.060" N
89°47'47.020" W
15.80 m
2303094
71407
NBB

Download Data

Hourly Data (February 2021)
Hourly Data Report for February 9, 2021
TIME
LST
Temp Definition
°C
Dew Point Definition
°C
Rel Hum Definition
%
Precip. Amount Definition
mm

Wind Dir Definition
10's deg

Wind Spd Definition
km/h
Visibility Definition
km
Stn Press Definition
kPa
Hmdx Definition


Wind Chill Definition


Weather Definition


00:00 -17.1 -19.8 80 0.0 6 13   102.64   -25 LegendNANA
01:00 -17.2 -19.8 80 0.0 2 25   102.65   -28 LegendNANA
02:00 -16.1 -18.9 79 0.0 4 16   102.67   -25 LegendNANA
03:00 -17.7 -20.2 81 0.0 1 20   102.77   -28 LegendNANA
04:00 -18.1 -20.5 81 0.0 2 19   102.83   -28 LegendNANA
05:00 -17.8 -20.3 80 0.0 3 22   102.78   -28 LegendNANA
06:00 -20.6 -23.1 81 0.0 1 28   102.83   -33 LegendNANA
07:00 -21.1 -23.6 80 0.0 5 13   102.93   -30 LegendNANA
08:00 -21.2 -23.5 81 0.0 5 19   102.93   -32 LegendNANA
09:00 -21.9 -24.3 81 0.0 4 14   102.95   -31 LegendNANA
10:00 -22.0 -24.5 80 0.0 5 11   103.00   -30 LegendNANA
11:00 -20.9 -23.5 80 0.0 8 9   103.04   -28 LegendNANA
12:00 -19.8 -22.4 80 0.0 6 14   103.06   -29 LegendNANA
13:00 -19.5 -22.1 80 0.0 4 15   103.12   -28 LegendNANA
14:00 -18.7 -20.6 85 0.0 5 13   103.17   -27 LegendNANA
15:00 -18.4 -20.2 86 0.0 2 13   103.22   -26 LegendNANA
16:00 -17.9 -19.8 86 0.0 2 11   103.27   -25 LegendNANA
17:00 -17.3 -19.1 85 0.0 6 10   103.30   -24 LegendNANA
18:00 -16.8 -18.7 85 0.0 3 3   103.37   -19 LegendNANA
19:00 -16.7 -18.7 85 0.0 14 2   103.41   -18 LegendNANA
20:00 -16.9 -18.7 86 0.0 25 4   103.42   -20 LegendNANA
21:00 -16.3 -18.1 85 0.0 26 6   103.46   -21 LegendNANA
22:00 -16.8 -18.7 85 0.0 26 4   103.50   -20 LegendNANA
23:00 -18.2 -20.2 84 0.0 1 2   103.53   -20 LegendNANA

Notes on Data Quality.

Legend

  • E = Estimated
  • M = Missing
  • NA = Not Available*
  • [empty] = Indicates an unobserved value
Date modified: